This is the latest recevied weather packets stored in our database for station/object OE-11343. If no packets are shown the sender has not sent any weather packets the latest 10 day(s).
| Time | Temp. | Humidity | Pressure | Rain* | Wind** | Luminosity | Snow |
|---|---|---|---|---|---|---|---|
| 1787933498 | 10° C | 72% | 716.5 hPa | - | - | 120 W/m² | - |
| 1787933125 | 10° C | 72% | 716.4 hPa | - | - | 130 W/m² | - |
| 1787932525 | 10.56° C | 69% | 716.4 hPa | - | - | 180 W/m² | - |
| 1787931698 | 10.56° C | 69% | 716.4 hPa | - | - | 170 W/m² | - |
| 1787931325 | 10.56° C | 68% | 716.4 hPa | - | - | 210 W/m² | - |
| 1787930725 | 10.56° C | 67% | 716.5 hPa | - | - | 180 W/m² | - |
| 1787929898 | 10.56° C | 69% | 716.6 hPa | - | - | 140 W/m² | - |
| 1787929524 | 10.56° C | 68% | 716.5 hPa | - | - | 190 W/m² | - |
| 1787928924 | 10.56° C | 67% | 716.5 hPa | - | - | 150 W/m² | - |
| 1787928098 | 10.56° C | 66% | 716.8 hPa | - | - | 180 W/m² | - |
| 1787927724 | 10.56° C | 65% | 717 hPa | - | - | 190 W/m² | - |
| 1787927124 | 10.56° C | 65% | 716.9 hPa | - | - | 210 W/m² | - |
| 1787926298 | 10.56° C | 66% | 717 hPa | - | - | 240 W/m² | - |
| 1787925925 | 10.56° C | 69% | 717.1 hPa | - | - | 200 W/m² | - |
| 1787925325 | 10.56° C | 69% | 717.5 hPa | - | - | 170 W/m² | - |
| 1787924498 | 10.56° C | 68% | 717.7 hPa | - | - | 180 W/m² | - |
| 1787924125 | 10.56° C | 69% | 717.8 hPa | - | - | 240 W/m² | - |
| 1787923525 | 11.11° C | 64% | 717.7 hPa | - | - | 180 W/m² | - |
| 1787922696 | 10.56° C | 67% | 717.8 hPa | - | - | 190 W/m² | - |
| 1787922324 | 10.56° C | 66% | 717.8 hPa | - | - | 320 W/m² | - |
| 1787921725 | 11.11° C | 70% | 718 hPa | - | - | 240 W/m² | - |
| 1787920897 | 11.11° C | 72% | 718.1 hPa | - | - | 300 W/m² | - |
| 1787920525 | 10.56° C | 70% | 718.1 hPa | - | - | 320 W/m² | - |
| 1787919925 | 10.56° C | 70% | 718.1 hPa | - | - | 370 W/m² | - |
| 1787919097 | 10.56° C | 71% | 718.1 hPa | - | - | 300 W/m² | - |
* Rain since midnight (hover to see other rain measurements)
** Current wind speed in m/s (hover to see current wind gust speed)